Location: Zaragoza
(41.6330°N, 0.8830°W)
Time: 18:07:02
(UTC+02:00)

ISS - Visible Passes

Search period start: 24 April 2019 00:00
Search period end: 04 May 2019 00:00
Orbit: 408 x 410 km, 51.6° (Epoch: 25 April)

Date Brightness Start Highest point End Pass type
(mag) Time Alt. Az. Time Alt. Az. Time Alt. Az.
27 Apr -1.1 06:14:40 10° SSE 06:16:31 14° SE 06:18:21 10° E visible
29 Apr -2.6 06:08:09 10° SSW 06:11:06 35° SE 06:14:10 10° ENE visible
30 Apr -1.8 05:19:24 17° SSE 05:20:24 19° SE 05:22:51 10° E visible
01 May -3.8 06:03:19 16° SW 06:05:49 89° WNW 06:09:08 10° NE visible
02 May -3.3 05:14:24 42° S 05:14:59 48° SE 05:18:11 10° ENE visible
03 May -1.6 04:25:25 20° E 04:25:25 20° E 04:27:01 10° ENE visible
03 May -2.9 05:58:09 14° W 06:00:39 40° NNW 06:03:48 10° NE visible
